Flag for Spain Weather past 2 weeks in Valladolid, Spain

Now
70 °F

Scattered clouds.


Feels Like: 70 °F
Forecast: 54 / 70 °F
Wind: 6 mph from West

Location: Valladolid / Villanubla

Current Time: Sep 22, 2014 at 6:57:28 PM

Latest Report: Sep 22, 2014 at 6:30 PM


Visibility: N/A

Pressure: 29.98 "Hg

Humidity: 43%

Dew point: 46 °F

Location of ValladolidLocation

Historic Weather in Valladolid — Graph

°F

Valladolid temperature yesterday

Maximum temperature yesterday: 77 °F (at 3:30 PM)
Minimum temperature yesterday: 52 °F (at 7:00 AM)
Average temperature yesterday: 66 °F

Past Weeks' High & Low Weather Summary

 TemperatureHumidityPressure
High84 °F (Sep 10, 4:30 PM)100% (Sep 8, 7:30 AM)30.15 "Hg (Sep 8, 7:30 AM)
Low52 °F (Sep 18, 7:00 AM)22% (Sep 10, 4:30 PM)29.71 "Hg (Sep 16, 4:30 PM)
Average68 °F61%29.98 "Hg
* Reported Sep 7 6:00 PM — Sep 22 6:00 PM, Valladolid, Weather by CustomWeather, © 2014

Note: Actual official high and low records may vary slightly from our data, if they occured in-between our weather recording intervals... More about our weather records

Advertising

Valladolid weather history for previous 24 hours

 ConditionsComfort  
Time TempWeatherWind HumidityBarometerVisibility
6:00 PM
Sep 22
70 °FScattered clouds.5 mph43%29.98 "HgN/A
5:30 PM72 °FScattered clouds.9 mph44%29.98 "HgN/A
5:00 PM72 °FPassing clouds.7 mph41%30.01 "HgN/A
4:30 PM72 °FScattered clouds.8 mph44%30.01 "HgN/A
4:00 PM72 °FScattered clouds.6 mph44%30.01 "HgN/A
3:30 PM70 °FScattered clouds.6 mph50%30.01 "HgN/A
3:00 PM68 °FScattered clouds.6 mph56%30.04 "HgN/A
2:30 PM68 °FScattered clouds.6 mph56%30.04 "HgN/A
2:00 PM66 °FScattered clouds.6 mph56%30.04 "HgN/A
1:30 PM68 °FScattered clouds.3 mph60%30.04 "HgN/A
1:00 PM66 °FScattered clouds.3 mph68%30.04 "HgN/A
12:30 PM66 °FScattered clouds.6 mph68%30.04 "HgN/A
12:00 PM64 °FPartly sunny.3 mph78%30.04 "HgN/A
11:30 AM63 °FScattered clouds.3 mph83%30.04 "HgN/A
11:00 AM63 °FScattered clouds.No wind83%30.04 "HgN/A
10:30 AM61 °FPartly sunny.1 mph88%30.04 "HgN/A
10:00 AM57 °FScattered clouds.5 mph94%30.04 "HgN/A
9:30 AM57 °FScattered clouds.2 mph100%30.01 "HgN/A
9:00 AM55 °FPassing clouds.3 mph100%30.01 "HgN/A
8:30 AM55 °FPassing clouds.5 mph100%30.01 "HgN/A
8:00 AM55 °FPassing clouds.5 mph100%30.01 "HgN/A
7:30 AM57 °FOvercast.9 mph100%30.01 "HgN/A
7:00 AM57 °FOvercast.8 mph100%30.01 "HgN/A
9:30 PM
Sep 21
63 °FPassing clouds.8 mph77%30.07 "HgN/A
9:00 PM63 °FRain. Partly sunny.5 mph83%30.07 "HgN/A
8:30 PM63 °FPartly sunny.9 mph77%30.07 "HgN/A
8:00 PM63 °FRain. Partly sunny.17 mph73%30.07 "HgN/A
7:30 PM66 °FThundershowers. Broken clouds.10 mph60%30.09 "HgN/A
7:00 PM70 °FThundershowers. Broken clouds.13 mph43%30.07 "HgN/A
6:30 PM70 °FThundershowers. Scattered clouds.8 mph46%30.07 "HgN/A
6:00 PM73 °FScattered clouds.3 mph36%30.07 "HgN/A
Weather by CustomWeather, © 2014

See weather overviewHow to use our weather pages